VTK601 UHMM-UHHH

Flight info

Callsign VTK601
Flight time N/A
Altitude 40000
Route BANOT5D BANOT L160 NA N222 TOMSU TOMSU6G
Aircraft A359/H-SDE2E3GHIJ3J4J5LM1ORWXY/LB1D1

Departure

Time 2026-05-06 05:16
Airport Sokol Airport (UHMM)

Arrival

Time N/A
Airport Khabarovsk Novy Airport (UHHH)
Time Latitude Longitude Altitude Speed Heading
2026-05-06 05:02 59.91381 150.71784 589 ft 0 kts 182°
2026-05-06 05:11 59.91335 150.71725 589 ft 14 kts 238°
2026-05-06 05:12 59.91330 150.71524 589 ft 16 kts 272°
2026-05-06 05:12 59.91270 150.71368 589 ft 16 kts 191°
2026-05-06 05:12 59.91158 150.71317 591 ft 16 kts 218°
2026-05-06 05:12 59.91125 150.71101 592 ft 18 kts 272°
2026-05-06 05:13 59.91131 150.70835 590 ft 21 kts 273°
2026-05-06 05:13 59.91140 150.70523 587 ft 24 kts 273°
2026-05-06 05:13 59.91149 150.70177 587 ft 26 kts 273°
2026-05-06 05:13 59.91158 150.69815 590 ft 26 kts 273°
2026-05-06 05:14 59.91166 150.69521 591 ft 15 kts 273°
2026-05-06 05:14 59.91172 150.69300 592 ft 17 kts 273°
2026-05-06 05:14 59.91220 150.69104 589 ft 12 kts 316°
2026-05-06 05:14 59.91221 150.68970 590 ft 10 kts 222°
2026-05-06 05:15 59.91173 150.69005 590 ft 8 kts 113°
2026-05-06 05:15 59.91174 150.69132 590 ft 10 kts 91°
2026-05-06 05:15 59.91166 150.69478 591 ft 57 kts 93°
2026-05-06 05:15 59.91132 150.70746 589 ft 124 kts 93°
2026-05-06 05:16 59.91077 150.72777 821 ft 156 kts 91°
2026-05-06 05:16 59.91040 150.74911 1573 ft 151 kts 89°
2026-05-06 05:16 59.90982 150.77080 2163 ft 167 kts 90°
2026-05-06 05:16 59.90913 150.79577 2556 ft 193 kts 90°
2026-05-06 05:17 59.90835 150.82351 3132 ft 207 kts 90°
2026-05-06 05:17 59.90749 150.85368 3576 ft 228 kts 91°
2026-05-06 05:17 59.90655 150.88608 4333 ft 235 kts 91°
2026-05-06 05:17 59.90559 150.91857 5231 ft 235 kts 91°
2026-05-06 05:18 59.90473 150.95087 6185 ft 235 kts 91°
2026-05-06 05:18 59.90391 150.98324 7141 ft 235 kts 92°
2026-05-06 05:18 59.90287 151.01618 8030 ft 244 kts 94°
2026-05-06 05:18 59.89939 151.04928 9012 ft 247 kts 110°
2026-05-06 05:19 59.89018 151.07854 9808 ft 259 kts 130°
2026-05-06 05:19 59.87451 151.09955 10154 ft 290 kts 155°
2026-05-06 05:19 59.85347 151.10391 10529 ft 323 kts 184°
2026-05-06 05:19 59.83218 151.08658 11235 ft 343 kts 212°
2026-05-06 05:20 59.81600 151.05096 12056 ft 357 kts 238°
2026-05-06 05:20 59.80847 151.00368 12926 ft 364 kts 263°
2026-05-06 05:20 59.80706 150.95320 13781 ft 367 kts 267°
2026-05-06 05:20 59.80583 150.90205 14497 ft 373 kts 265°
2026-05-06 05:21 59.80369 150.85048 15318 ft 377 kts 264°
2026-05-06 05:21 59.80088 150.79847 16161 ft 380 kts 263°
2026-05-06 05:21 59.79766 150.74596 16983 ft 385 kts 262°
2026-05-06 05:21 59.79415 150.69312 17734 ft 389 kts 262°
2026-05-06 05:22 59.79051 150.63951 18392 ft 394 kts 261°
2026-05-06 05:22 59.78670 150.58532 19124 ft 398 kts 261°
2026-05-06 05:22 59.78295 150.53145 19796 ft 401 kts 261°
2026-05-06 05:22 59.77901 150.47645 20410 ft 407 kts 261°
2026-05-06 05:23 59.77497 150.42065 21074 ft 410 kts 261°
2026-05-06 05:23 59.77090 150.36429 21687 ft 415 kts 261°
2026-05-06 05:23 59.76267 150.25008 23068 ft 422 kts 261°
2026-05-06 05:24 59.75841 150.19211 23627 ft 428 kts 261°
2026-05-06 05:24 59.75401 150.13365 24290 ft 429 kts 261°
2026-05-06 05:24 59.74962 150.07480 24868 ft 435 kts 261°
2026-05-06 05:24 59.74520 150.01544 25509 ft 436 kts 261°
2026-05-06 05:25 59.74076 149.95568 26050 ft 440 kts 260°
2026-05-06 05:25 59.73609 149.89572 26519 ft 442 kts 260°
2026-05-06 05:25 59.73150 149.83489 26989 ft 450 kts 260°
2026-05-06 05:25 59.72671 149.77356 27689 ft 451 kts 261°
2026-05-06 05:26 59.72204 149.71191 28320 ft 453 kts 261°
2026-05-06 05:26 59.71725 149.64994 28849 ft 457 kts 260°
2026-05-06 05:26 59.71236 149.58741 29310 ft 461 kts 260°
2026-05-06 05:26 59.70739 149.52432 29743 ft 465 kts 260°
2026-05-06 05:27 59.70236 149.46087 30141 ft 468 kts 260°
2026-05-06 05:27 59.69726 149.39691 30544 ft 472 kts 260°
2026-05-06 05:27 59.69207 149.33244 30904 ft 476 kts 260°
2026-05-06 05:27 59.68633 149.26776 31261 ft 478 kts 256°
2026-05-06 05:28 59.67692 149.20553 31562 ft 480 kts 246°
2026-05-06 05:28 59.66198 149.14652 31917 ft 481 kts 236°
2026-05-06 05:28 59.64187 149.09371 32225 ft 481 kts 225°
2026-05-06 05:28 59.61793 149.04758 32574 ft 482 kts 220°
2026-05-06 05:29 59.59243 149.00411 32913 ft 485 kts 218°
2026-05-06 05:29 59.56629 148.96198 33219 ft 487 kts 217°
2026-05-06 05:29 59.53974 148.92009 33513 ft 490 kts 216°
2026-05-06 05:29 59.51308 148.87812 33755 ft 492 kts 217°
2026-05-06 05:30 59.48631 148.83567 33989 ft 495 kts 217°
2026-05-06 05:30 59.45958 148.79298 34300 ft 495 kts 217°
2026-05-06 05:30 59.43289 148.75013 34667 ft 495 kts 217°
2026-05-06 05:30 59.40631 148.70739 35028 ft 494 kts 217°
2026-05-06 05:31 59.37976 148.66472 35371 ft 493 kts 217°
2026-05-06 05:31 59.35314 148.62202 35699 ft 494 kts 217°
2026-05-06 05:31 59.32657 148.57949 36048 ft 493 kts 217°
2026-05-06 05:31 59.30004 148.53710 36399 ft 492 kts 217°
2026-05-06 05:32 59.27355 148.49489 36719 ft 492 kts 217°
2026-05-06 05:32 59.24701 148.45268 37021 ft 491 kts 217°
2026-05-06 05:32 59.22050 148.41064 37311 ft 491 kts 217°
2026-05-06 05:32 59.19399 148.36868 37606 ft 491 kts 217°
2026-05-06 05:33 59.16741 148.32672 37891 ft 491 kts 217°
2026-05-06 05:33 59.14169 148.28619 38230 ft 488 kts 217°
2026-05-06 05:33 59.11710 148.24750 38508 ft 486 kts 217°
2026-05-06 05:33 59.09268 148.20915 38705 ft 486 kts 217°
2026-05-06 05:34 59.06649 148.16809 38875 ft 487 kts 217°
2026-05-06 05:34 59.04059 148.12753 39044 ft 486 kts 218°
2026-05-06 05:34 59.01456 148.08684 39219 ft 486 kts 217°
2026-05-06 05:34 58.98987 148.04841 39371 ft 487 kts 217°
2026-05-06 05:35 58.93753 147.96722 39470 ft 488 kts 217°
2026-05-06 05:35 58.88574 147.88715 39477 ft 487 kts 218°
2026-05-06 05:36 58.83288 147.80571 39475 ft 486 kts 218°
2026-05-06 05:36 58.77988 147.72435 39474 ft 486 kts 218°
2026-05-06 05:37 58.73587 147.65708 39472 ft 486 kts 218°
2026-05-06 05:37 58.68280 147.57630 39473 ft 486 kts 217°
2026-05-06 05:38 58.62983 147.49595 39476 ft 485 kts 218°
2026-05-06 05:38 58.57679 147.41581 39470 ft 485 kts 217°
2026-05-06 05:39 58.52376 147.33608 39473 ft 484 kts 217°
2026-05-06 05:39 58.47074 147.25661 39474 ft 485 kts 217°
2026-05-06 05:40 58.41762 147.17726 39476 ft 484 kts 217°
2026-05-06 05:40 58.36450 147.09829 39478 ft 484 kts 217°
2026-05-06 05:41 58.31127 147.01946 39479 ft 485 kts 217°
2026-05-06 05:41 58.25832 146.94135 39477 ft 484 kts 217°
2026-05-06 05:42 58.20496 146.86300 39485 ft 485 kts 217°
2026-05-06 05:42 58.15153 146.78481 39485 ft 485 kts 217°
2026-05-06 05:43 58.09809 146.70679 39484 ft 486 kts 217°
2026-05-06 05:43 58.04450 146.62894 39484 ft 486 kts 217°
2026-05-06 05:44 57.99082 146.55134 39486 ft 486 kts 217°
2026-05-06 05:44 57.93703 146.47384 39487 ft 486 kts 217°
2026-05-06 05:45 57.88323 146.39659 39486 ft 487 kts 217°
2026-05-06 05:45 57.82972 146.32012 39487 ft 487 kts 217°
2026-05-06 05:46 57.77578 146.24327 39492 ft 488 kts 217°
2026-05-06 05:46 57.72175 146.16655 39493 ft 487 kts 217°
2026-05-06 05:47 57.66774 146.09019 39501 ft 487 kts 217°
2026-05-06 05:47 57.61366 146.01402 39492 ft 487 kts 217°
2026-05-06 05:48 57.55952 145.93810 39501 ft 486 kts 217°
2026-05-06 05:48 57.50537 145.86242 39504 ft 487 kts 217°
2026-05-06 05:49 57.45118 145.78695 39506 ft 487 kts 217°
2026-05-06 05:49 57.39695 145.71174 39506 ft 486 kts 217°
2026-05-06 05:50 57.34267 145.63674 39506 ft 487 kts 217°
2026-05-06 05:50 57.28841 145.56206 39515 ft 486 kts 217°
2026-05-06 05:51 57.23450 145.48813 39518 ft 486 kts 217°
2026-05-06 05:51 57.18009 145.41382 39520 ft 486 kts 217°
2026-05-06 05:52 57.12576 145.33985 39521 ft 485 kts 217°
2026-05-06 05:52 57.07138 145.26610 39526 ft 486 kts 217°
2026-05-06 05:53 57.01700 145.19259 39528 ft 485 kts 217°
2026-05-06 05:53 56.96263 145.11940 39529 ft 485 kts 217°
2026-05-06 05:54 56.90810 145.04629 39533 ft 485 kts 217°
2026-05-06 05:54 56.85364 144.97356 39534 ft 484 kts 217°
2026-05-06 05:55 56.79962 144.90170 39537 ft 485 kts 217°
2026-05-06 05:55 56.74510 144.82940 39537 ft 484 kts 217°
2026-05-06 05:56 56.69067 144.75743 39540 ft 483 kts 217°
2026-05-06 05:56 56.63620 144.68570 39539 ft 484 kts 217°
2026-05-06 05:57 56.58158 144.61401 39544 ft 483 kts 217°
2026-05-06 05:57 56.52703 144.54271 39550 ft 484 kts 216°
2026-05-06 05:58 56.47233 144.47150 39548 ft 484 kts 217°
2026-05-06 05:58 56.41763 144.40055 39547 ft 484 kts 217°
2026-05-06 05:59 56.36324 144.33020 39555 ft 484 kts 217°
2026-05-06 05:59 56.30853 144.25971 39561 ft 483 kts 217°
2026-05-06 06:00 56.25369 144.18985 39565 ft 483 kts 216°
2026-05-06 06:00 56.19844 144.12097 39566 ft 483 kts 216°
2026-05-06 06:01 56.14317 144.05238 39564 ft 483 kts 216°
2026-05-06 06:01 56.08790 143.98386 39576 ft 484 kts 216°
2026-05-06 06:02 56.03251 143.91543 39569 ft 483 kts 216°
2026-05-06 06:02 55.97750 143.84765 39569 ft 483 kts 216°
2026-05-06 06:03 55.92211 143.77960 39572 ft 484 kts 216°
2026-05-06 06:03 55.86662 143.71170 39577 ft 483 kts 216°
2026-05-06 06:04 55.81120 143.64415 39582 ft 483 kts 216°
2026-05-06 06:04 55.75577 143.57683 39584 ft 482 kts 216°
2026-05-06 06:05 55.70038 143.50979 39593 ft 482 kts 216°
2026-05-06 06:05 55.64491 143.44288 39591 ft 483 kts 216°
2026-05-06 06:06 55.58982 143.37663 39595 ft 481 kts 216°
2026-05-06 06:06 55.53435 143.31014 39594 ft 482 kts 216°
2026-05-06 06:07 55.47885 143.24391 39603 ft 482 kts 216°
2026-05-06 06:07 55.42334 143.17784 39603 ft 481 kts 216°
2026-05-06 06:08 55.36783 143.11200 39611 ft 481 kts 215°
2026-05-06 06:08 55.31225 143.04632 39619 ft 481 kts 215°
2026-05-06 06:09 55.25671 142.98095 39618 ft 480 kts 216°
2026-05-06 06:09 55.20118 142.91579 39622 ft 480 kts 215°
2026-05-06 06:10 55.14542 142.85131 39622 ft 480 kts 215°
2026-05-06 06:10 55.08956 142.78737 39632 ft 480 kts 215°
2026-05-06 06:11 55.03411 142.72402 39632 ft 479 kts 215°
2026-05-06 06:11 54.97828 142.66037 39634 ft 480 kts 215°
2026-05-06 06:12 54.92237 142.59678 39640 ft 479 kts 215°
2026-05-06 06:12 54.86649 142.53345 39642 ft 479 kts 215°
2026-05-06 06:13 54.81068 142.47036 39648 ft 479 kts 215°
2026-05-06 06:13 54.75481 142.40744 39648 ft 479 kts 215°
2026-05-06 06:14 54.69891 142.34475 39655 ft 479 kts 215°
2026-05-06 06:14 54.64305 142.28228 39654 ft 478 kts 215°
2026-05-06 06:15 54.58755 142.22042 39661 ft 478 kts 215°
2026-05-06 06:15 54.53166 142.15835 39661 ft 478 kts 214°
2026-05-06 06:16 54.47576 142.09645 39666 ft 478 kts 214°
2026-05-06 06:16 54.41983 142.03472 39669 ft 478 kts 214°
2026-05-06 06:17 54.36385 141.97317 39669 ft 478 kts 214°
2026-05-06 06:17 54.30791 141.91182 39675 ft 478 kts 214°
2026-05-06 06:18 54.25187 141.85061 39675 ft 478 kts 214°
2026-05-06 06:18 54.19582 141.78957 39669 ft 477 kts 214°
2026-05-06 06:19 54.13983 141.72879 39677 ft 477 kts 214°
2026-05-06 06:19 54.08385 141.66821 39680 ft 476 kts 214°
2026-05-06 06:20 54.02787 141.60784 39683 ft 476 kts 214°
2026-05-06 06:20 53.97218 141.54797 39683 ft 477 kts 214°
2026-05-06 06:21 53.91610 141.48784 39682 ft 476 kts 214°
2026-05-06 06:21 53.86004 141.42792 39688 ft 476 kts 214°
2026-05-06 06:22 53.80396 141.36823 39688 ft 476 kts 214°
2026-05-06 06:22 53.74789 141.30876 39689 ft 476 kts 214°
2026-05-06 06:23 53.69184 141.24943 39685 ft 476 kts 214°
2026-05-06 06:23 53.63569 141.19025 39682 ft 476 kts 214°
2026-05-06 06:24 53.57995 141.13166 39691 ft 475 kts 214°
2026-05-06 06:24 53.52377 141.07279 39686 ft 475 kts 214°
2026-05-06 06:25 53.46767 141.01423 39690 ft 475 kts 214°
2026-05-06 06:26 53.38350 140.92659 39677 ft 474 kts 214°
2026-05-06 06:26 53.32742 140.86841 39677 ft 474 kts 214°
2026-05-06 06:27 53.27127 140.81051 39688 ft 474 kts 214°
2026-05-06 06:27 53.21510 140.75268 39674 ft 474 kts 214°
2026-05-06 06:28 53.15907 140.69456 39677 ft 473 kts 217°
2026-05-06 06:28 53.10580 140.63049 39675 ft 472 kts 219°
2026-05-06 06:29 53.05325 140.56528 39683 ft 471 kts 219°
2026-05-06 06:29 53.00088 140.50003 39676 ft 471 kts 219°
2026-05-06 06:30 52.94835 140.43495 39676 ft 471 kts 219°
2026-05-06 06:30 52.89592 140.37032 39683 ft 469 kts 219°
2026-05-06 06:31 52.84346 140.30593 39684 ft 469 kts 219°
2026-05-06 06:31 52.79102 140.24168 39684 ft 470 kts 219°
2026-05-06 06:32 52.73848 140.17753 39682 ft 469 kts 219°
2026-05-06 06:32 52.69486 140.12444 39682 ft 469 kts 219°
2026-05-06 06:33 52.64235 140.06071 39686 ft 469 kts 219°
2026-05-06 06:33 52.58930 139.99818 39689 ft 469 kts 217°
2026-05-06 06:34 52.53518 139.93813 39687 ft 469 kts 217°
2026-05-06 06:34 52.48110 139.87839 39685 ft 468 kts 217°
2026-05-06 06:35 52.42723 139.81848 39691 ft 467 kts 217°
2026-05-06 06:35 52.37350 139.75859 39689 ft 467 kts 217°
2026-05-06 06:36 52.31972 139.69884 39689 ft 468 kts 217°
2026-05-06 06:36 52.26588 139.63926 39691 ft 467 kts 217°
2026-05-06 06:37 52.21210 139.57994 39692 ft 467 kts 217°
2026-05-06 06:37 52.15825 139.52071 39699 ft 466 kts 217°
2026-05-06 06:38 52.10483 139.46212 39700 ft 466 kts 217°
2026-05-06 06:38 52.05100 139.40319 39700 ft 466 kts 217°
2026-05-06 06:39 51.99730 139.34457 39703 ft 464 kts 217°
2026-05-06 06:39 51.94363 139.28627 39700 ft 464 kts 217°
2026-05-06 06:40 51.88990 139.22802 39702 ft 464 kts 217°
2026-05-06 06:40 51.83619 139.16989 39709 ft 464 kts 217°
2026-05-06 06:41 51.78253 139.11204 39699 ft 463 kts 217°
2026-05-06 06:41 51.72897 139.05446 39704 ft 463 kts 217°
2026-05-06 06:42 51.67534 138.99698 39709 ft 462 kts 217°
2026-05-06 06:42 51.62174 138.93968 39701 ft 463 kts 217°
2026-05-06 06:43 51.56813 138.88256 39706 ft 461 kts 217°
2026-05-06 06:43 51.51467 138.82572 39706 ft 461 kts 217°
2026-05-06 06:44 51.46113 138.76895 39711 ft 461 kts 217°
2026-05-06 06:44 51.40758 138.71241 39713 ft 461 kts 217°
2026-05-06 06:45 51.35398 138.65599 39709 ft 460 kts 217°
2026-05-06 06:45 51.30057 138.59983 39713 ft 459 kts 217°
2026-05-06 06:46 51.24717 138.54390 39712 ft 459 kts 217°
2026-05-06 06:46 51.19408 138.48846 39713 ft 459 kts 217°
2026-05-06 06:47 51.14066 138.43281 39717 ft 458 kts 217°
2026-05-06 06:47 51.08731 138.37740 39720 ft 458 kts 217°
2026-05-06 06:48 51.03393 138.32210 39719 ft 458 kts 217°
2026-05-06 06:48 50.98053 138.26693 39718 ft 457 kts 217°
2026-05-06 06:49 50.92726 138.21187 39716 ft 456 kts 218°
2026-05-06 06:49 50.87652 138.15177 39722 ft 454 kts 221°
2026-05-06 06:50 50.82666 138.09050 39725 ft 454 kts 222°
2026-05-06 06:50 50.77688 138.02901 39717 ft 454 kts 222°
2026-05-06 06:51 50.72713 137.96785 39722 ft 453 kts 222°
2026-05-06 06:51 50.72196 137.96152 39723 ft 453 kts 222°
2026-05-06 07:02 50.71593 137.95413 39721 ft 453 kts 222°
2026-05-06 07:02 50.66615 137.89326 39724 ft 453 kts 222°
2026-05-06 07:03 50.61633 137.83258 39725 ft 453 kts 222°
2026-05-06 07:03 50.56645 137.77197 39724 ft 453 kts 222°
2026-05-06 07:04 50.51655 137.71149 39723 ft 452 kts 222°
2026-05-06 07:04 50.46675 137.65133 39725 ft 450 kts 222°
2026-05-06 07:05 50.41712 137.59151 39720 ft 450 kts 222°
2026-05-06 07:05 50.36738 137.53204 39720 ft 451 kts 220°
2026-05-06 07:05 50.34204 137.50381 39605 ft 453 kts 219°
2026-05-06 07:06 50.31598 137.47597 39394 ft 452 kts 219°
2026-05-06 07:06 50.29016 137.44889 39082 ft 445 kts 219°
2026-05-06 07:06 50.26440 137.42186 38490 ft 446 kts 219°
2026-05-06 07:06 50.23865 137.39463 37735 ft 447 kts 219°
2026-05-06 07:07 50.21294 137.36730 37076 ft 446 kts 219°
2026-05-06 07:07 50.18739 137.34004 36421 ft 444 kts 220°
2026-05-06 07:07 50.16190 137.31280 35742 ft 443 kts 220°
2026-05-06 07:07 50.13654 137.28567 35133 ft 440 kts 220°
2026-05-06 07:08 50.11144 137.25888 34614 ft 435 kts 220°
2026-05-06 07:08 50.08653 137.23236 34103 ft 430 kts 220°
2026-05-06 07:08 50.06196 137.20632 33574 ft 425 kts 220°
2026-05-06 07:08 50.03762 137.18079 33027 ft 420 kts 221°
2026-05-06 07:09 50.01350 137.15562 32505 ft 414 kts 221°
2026-05-06 07:09 49.98978 137.13091 32000 ft 407 kts 221°
2026-05-06 07:09 49.96643 137.10660 31517 ft 401 kts 221°
2026-05-06 07:09 49.94340 137.08265 31030 ft 395 kts 222°
2026-05-06 07:10 49.92106 137.05937 30561 ft 389 kts 222°
2026-05-06 07:10 49.89876 137.03613 30093 ft 383 kts 223°
2026-05-06 07:10 49.87684 137.01331 29592 ft 377 kts 223°
2026-05-06 07:10 49.85520 136.99081 29098 ft 371 kts 223°
2026-05-06 07:11 49.83396 136.96880 28650 ft 363 kts 223°
2026-05-06 07:11 49.81317 136.94727 28204 ft 356 kts 223°
2026-05-06 07:11 49.79277 136.92613 27780 ft 350 kts 223°
2026-05-06 07:11 49.77264 136.90529 27325 ft 344 kts 223°
2026-05-06 07:12 49.75286 136.88482 26891 ft 339 kts 223°
2026-05-06 07:12 49.73366 136.86495 26460 ft 334 kts 223°
2026-05-06 07:12 49.71446 136.84510 26043 ft 330 kts 223°
2026-05-06 07:12 49.69547 136.82551 25613 ft 326 kts 223°
2026-05-06 07:13 49.67671 136.80614 25210 ft 323 kts 223°
2026-05-06 07:13 49.65811 136.78696 24787 ft 320 kts 223°
2026-05-06 07:13 49.63970 136.76795 24369 ft 317 kts 223°
2026-05-06 07:13 49.62136 136.74906 23946 ft 317 kts 223°
2026-05-06 07:14 49.60298 136.73015 23539 ft 318 kts 223°
2026-05-06 07:14 49.58457 136.71128 23045 ft 317 kts 222°
2026-05-06 07:14 49.56621 136.69249 22562 ft 316 kts 223°
2026-05-06 07:14 49.54804 136.67389 22146 ft 311 kts 223°
2026-05-06 07:15 49.53031 136.65579 21745 ft 307 kts 223°
2026-05-06 07:15 49.51254 136.63764 21334 ft 307 kts 223°
2026-05-06 07:15 49.49477 136.61944 20891 ft 307 kts 222°
2026-05-06 07:15 49.47694 136.60119 20485 ft 308 kts 221°
2026-05-06 07:16 49.45909 136.58292 20058 ft 308 kts 221°
2026-05-06 07:16 49.44241 136.56266 19653 ft 304 kts 228°
2026-05-06 07:16 49.42715 136.54033 19233 ft 304 kts 230°
2026-05-06 07:16 49.41219 136.51758 18816 ft 303 kts 229°
2026-05-06 07:17 49.39727 136.49466 18402 ft 304 kts 229°
2026-05-06 07:17 49.38237 136.47163 17965 ft 305 kts 229°
2026-05-06 07:17 49.36744 136.44855 17485 ft 304 kts 229°
2026-05-06 07:17 49.35254 136.42550 17066 ft 304 kts 229°
2026-05-06 07:18 49.33770 136.40253 16635 ft 302 kts 229°
2026-05-06 07:18 49.32294 136.37972 16222 ft 301 kts 229°
2026-05-06 07:18 49.30824 136.35701 15796 ft 300 kts 229°
2026-05-06 07:18 49.29358 136.33440 15376 ft 298 kts 229°
2026-05-06 07:19 49.27898 136.31186 14960 ft 298 kts 229°
2026-05-06 07:19 49.26443 136.28941 14526 ft 296 kts 229°
2026-05-06 07:19 49.24996 136.26713 14121 ft 295 kts 229°
2026-05-06 07:19 49.23550 136.24488 13692 ft 294 kts 229°
2026-05-06 07:20 49.22128 136.22305 13271 ft 293 kts 229°
2026-05-06 07:20 49.20694 136.20106 12838 ft 292 kts 229°
2026-05-06 07:20 49.19263 136.17908 12429 ft 291 kts 228°
2026-05-06 07:20 49.17835 136.15716 11993 ft 290 kts 228°
2026-05-06 07:21 49.16413 136.13534 11592 ft 289 kts 228°
2026-05-06 07:21 49.14997 136.11365 11185 ft 288 kts 228°
2026-05-06 07:21 49.13588 136.09208 10780 ft 287 kts 227°
2026-05-06 07:21 49.12179 136.07061 10406 ft 284 kts 227°
2026-05-06 07:22 49.10819 136.04992 10263 ft 264 kts 227°
2026-05-06 07:22 49.09546 136.03054 10152 ft 254 kts 227°
2026-05-06 07:22 49.08318 136.01188 10045 ft 245 kts 228°
2026-05-06 07:22 49.07528 135.99982 9945 ft 243 kts 228°
2026-05-06 07:23 49.06334 135.98158 9681 ft 243 kts 228°
2026-05-06 07:23 49.05104 135.96279 9450 ft 259 kts 227°
2026-05-06 07:23 49.03813 135.94309 9299 ft 263 kts 227°
2026-05-06 07:23 49.02543 135.92386 8782 ft 255 kts 227°
2026-05-06 07:24 49.01261 135.90440 8389 ft 262 kts 227°
2026-05-06 07:24 48.99970 135.88479 8058 ft 262 kts 226°
2026-05-06 07:24 48.98341 135.86018 7855 ft 233 kts 227°
2026-05-06 07:24 48.97584 135.84873 7783 ft 225 kts 227°
2026-05-06 07:25 48.96501 135.83177 7638 ft 221 kts 229°
2026-05-06 07:25 48.95446 135.81473 7518 ft 221 kts 229°
2026-05-06 07:25 48.94393 135.79777 7322 ft 220 kts 229°
2026-05-06 07:25 48.93344 135.78090 7070 ft 220 kts 229°
2026-05-06 07:26 48.92305 135.76439 6805 ft 218 kts 227°
2026-05-06 07:26 48.91243 135.74754 6623 ft 218 kts 227°
2026-05-06 07:26 48.90201 135.73109 6541 ft 219 kts 227°
2026-05-06 07:26 48.89151 135.71455 6450 ft 216 kts 227°
2026-05-06 07:27 48.88105 135.69810 6354 ft 217 kts 227°
2026-05-06 07:27 48.87051 135.68163 6243 ft 218 kts 227°
2026-05-06 07:27 48.86000 135.66519 6144 ft 216 kts 227°
2026-05-06 07:27 48.84951 135.64877 6037 ft 216 kts 227°
2026-05-06 07:28 48.83909 135.63250 5930 ft 214 kts 227°
2026-05-06 07:28 48.82871 135.61631 5828 ft 214 kts 227°
2026-05-06 07:28 48.80793 135.58385 5641 ft 215 kts 227°
2026-05-06 07:29 48.79750 135.56758 5535 ft 215 kts 227°
2026-05-06 07:29 48.78714 135.55135 5442 ft 214 kts 227°
2026-05-06 07:29 48.77679 135.53525 5336 ft 213 kts 228°
2026-05-06 07:29 48.76645 135.51921 5234 ft 212 kts 227°
2026-05-06 07:30 48.75610 135.50327 5164 ft 213 kts 227°
2026-05-06 07:30 48.74547 135.48770 4898 ft 212 kts 226°
2026-05-06 07:30 48.73475 135.47235 4457 ft 210 kts 226°
2026-05-06 07:30 48.72408 135.45704 4306 ft 212 kts 226°
2026-05-06 07:31 48.71346 135.44175 4031 ft 209 kts 225°
2026-05-06 07:31 48.70296 135.42660 3721 ft 209 kts 225°
2026-05-06 07:31 48.69249 135.41148 3412 ft 208 kts 225°
2026-05-06 07:31 48.68209 135.39653 3196 ft 205 kts 225°
2026-05-06 07:32 48.67209 135.38240 3093 ft 194 kts 226°
2026-05-06 07:32 48.66261 135.36890 3016 ft 181 kts 225°
2026-05-06 07:32 48.65348 135.35644 2990 ft 176 kts 225°
2026-05-06 07:32 48.64445 135.34401 2816 ft 175 kts 225°
2026-05-06 07:33 48.63540 135.33159 2552 ft 176 kts 225°
2026-05-06 07:33 48.62932 135.32332 2419 ft 172 kts 225°
2026-05-06 07:34 48.60588 135.29139 1827 ft 155 kts 225°